Location: ????????
(54.6123°N, 39.2099°E)
Time: 04:57:10
(UTC+00:00)

Meteor 2-6 Rocket - Pass Details

Date: 19 May 2025
Orbit: 804 x 914 km, 81.3° (Epoch: 19 June)

Event Time Altitude Azimuth Distance (km) Brightness Sun altitude
Exits shadow 19:48:03 - 200° (SSW) 2,760 6.4 -12.9°
Reaches altitude 10° 19:48:35 10° 201° (SSW) 2,562 6.3 -12.9°
Maximum altitude 19:54:25 73° 286° (WNW) 924 4.5 -13.2°
Drops below altitude 10° 20:00:07 10° 11° (NNE) 2,508 7.6 -13.5°
Sets 20:02:33 0° 14° (NNE) 3,432 8.4 -13.6°
